G4WLC-1 Weather Reports


Display with metric or nautical units.
time (UTC)temp
F
wind
direction
speed
MPH
gust
MPH
rain 1hr
in
rain 24hr
in
rain mn
in
humidity
%
barometer
mb
20260507143758 56 240 0.0 1.0 0.00 0.00 0.00 72 1014.8
20260507143258 56 146 0.0 1.0 0.00 0.00 0.00 73 1014.8
20260507142758 55 114 0.0 2.0 0.00 0.00 0.00 76 1014.9
20260507142258 55 240 0.0 1.0 0.00 0.00 0.00 74 1014.9
20260507141758 55 259 0.0 1.0 0.00 0.00 0.00 76 1015.0
20260507141258 55 238 0.0 1.0 0.00 0.00 0.00 75 1015.0
20260507140758 55 250 0.0 3.0 0.00 0.00 0.00 74 1015.0
20260507140258 55 237 0.0 3.0 0.00 0.00 0.00 75 1015.1
20260507135758 55 121 0.0 4.0 0.00 0.00 0.00 74 1015.0
20260507135258 55 149 0.0 2.0 0.00 0.00 0.00 72 1015.1
20260507134758 55 152 1.0 3.0 0.00 0.00 0.00 73 1015.1
20260507134258 55 144 0.0 3.0 0.00 0.00 0.00 71 1015.2
20260507133758 56 143 0.0 2.0 0.00 0.00 0.00 72 1015.1
20260507133258 56 158 0.0 4.0 0.00 0.00 0.00 71 1015.2
20260507132758 56 252 0.0 3.0 0.00 0.00 0.00 72 1015.2
20260507132258 56 204 0.0 3.0 0.00 0.00 0.00 71 1015.3
20260507131758 56 141 0.0 3.0 0.00 0.00 0.00 75 1015.3
20260507131258 56 94 0.0 3.0 0.00 0.00 0.00 72 1015.3
20260507130758 55 158 0.0 4.0 0.00 0.00 0.00 70 1015.3
20260507130258 55 146 0.0 2.0 0.00 0.00 0.00 73 1015.3
20260507125758 55 135 0.0 3.0 0.00 0.00 0.00 73 1015.3
20260507125258 55 134 0.0 2.0 0.00 0.00 0.00 73 1015.3
20260507124758 55 146 0.0 0.0 0.00 0.00 0.00 71 1015.4
20260507124258 56 148 0.0 2.0 0.00 0.00 0.00 70 1015.3
20260507123758 56 139 0.0 1.0 0.00 0.00 0.00 70 1015.4
20260507123258 57 152 0.0 4.0 0.00 0.00 0.00 67 1015.5
20260507122758 57 94 0.0 1.0 0.00 0.00 0.00 67 1015.3
20260507122258 58 143 0.0 3.0 0.00 0.00 0.00 67 1015.5
20260507121758 58 150 0.0 2.0 0.00 0.00 0.00 69 1015.5
20260507121258 58 136 0.0 2.0 0.00 0.00 0.00 69 1015.5
20260507120758 58 105 0.0 3.0 0.00 0.00 0.00 67 1015.7
20260507120258 58 86 1.0 5.0 0.00 0.00 0.00 66 1015.6
20260507115758 58 204 2.0 5.0 0.00 0.00 0.00 66 1015.6
20260507115258 59 136 2.0 6.0 0.00 0.00 0.00 65 1015.7
20260507114758 60 132 1.0 5.0 0.00 0.00 0.00 67 1015.7
20260507114258 60 112 1.0 3.0 0.00 0.00 0.00 64 1015.7
20260507113758 60 192 1.0 5.0 0.00 0.00 0.00 66 1015.6
20260507113258 59 155 1.0 6.0 0.00 0.00 0.00 66 1015.6
20260507112758 59 225 1.0 6.0 0.00 0.00 0.00 70 1015.6
20260507112258 59 229 0.0 4.0 0.00 0.00 0.00 68 1015.6
20260507111758 58 81 1.0 3.0 0.00 0.00 0.00 70 1015.5
20260507111258 58 262 2.0 7.0 0.00 0.00 0.00 69 1015.7
20260507110758 58 146 2.0 9.0 0.00 0.00 0.00 67 1015.8
20260507110258 58 145 1.0 7.0 0.00 0.00 0.00 71 1015.7
20260507105758 58 215 1.0 6.0 0.00 0.00 0.00 69 1015.7
20260507105258 58 254 0.0 3.0 0.00 0.00 0.00 72 1015.9
20260507104758 58 187 1.0 4.0 0.00 0.00 0.00 71 1015.9
20260507104258 58 142 1.0 7.0 0.00 0.00 0.00 75 1016.0
20260507103758 58 132 1.0 6.0 0.00 0.00 0.00 73 1016.0
20260507103259 57 273 0.0 4.0 0.00 0.00 0.00 74 1015.8
20260507102758 57 335 1.0 1.0 0.00 0.00 0.00 75 1015.9
20260507102258 56 266 1.0 3.0 0.00 0.00 0.00 75 1015.9
20260507101758 56 184 1.0 4.0 0.00 0.00 0.00 76 1015.9
20260507101258 55 91 1.0 6.0 0.00 0.00 0.00 77 1015.8
20260507100758 55 97 0.0 3.0 0.00 0.00 0.00 78 1015.9
20260507100258 54 112 0.0 2.0 0.00 0.00 0.00 77 1015.7
20260507095758 54 106 1.0 2.0 0.00 0.00 0.00 79 1015.7
20260507095258 53 48 1.0 3.0 0.00 0.00 0.00 79 1015.9
20260507094758 53 243 0.0 3.0 0.00 0.00 0.00 79 1015.9
20260507094258 52 37 0.0 1.0 0.00 0.00 0.00 80 1016.0
20260507093758 52 289 0.0 2.0 0.00 0.00 0.00 80 1015.9
20260507093258 52 114 0.0 1.0 0.00 0.00 0.00 82 1015.9
20260507092758 51 46 0.0 3.0 0.00 0.00 0.00 81 1015.9
20260507092258 51 338 0.0 1.0 0.00 0.00 0.00 83 1015.9
20260507091758 50 267 0.0 2.0 0.00 0.00 0.00 83 1016.0
20260507091258 50 359 0.0 1.0 0.00 0.00 0.00 83 1016.0
20260507090758 49 124 0.0 1.0 0.00 0.00 0.00 84 1015.9
20260507090258 49 2 0.0 1.0 0.00 0.00 0.00 84 1015.9
20260507085758 49 43 0.0 1.0 0.00 0.00 0.00 84 1016.0
20260507085259 48 37 0.0 1.0 0.00 0.00 0.00 85 1016.1
20260507084759 48 309 0.0 1.0 0.00 0.00 0.00 85 1016.1
20260507084259 48 103 0.0 2.0 0.00 0.00 0.00 85 1016.0
20260507083759 47 67 0.0 1.0 0.00 0.00 0.00 85 1016.0
20260507083259 47 103 0.0 1.0 0.00 0.00 0.00 85 1016.1
20260507082759 47 97 0.0 1.0 0.00 0.00 0.00 85 1016.1
20260507082259 47 278 0.0 1.0 0.00 0.00 0.00 86 1016.1
20260507081759 47 240 0.0 0.0 0.00 0.00 0.00 87 1016.1
20260507081259 47 240 0.0 1.0 0.00 0.00 0.00 87 1015.9
20260507080759 46 276 0.0 1.0 0.00 0.00 0.00 87 1016.1
20260507080259 46 319 0.0 1.0 0.00 0.00 0.00 87 1016.0
20260507075759 46 84 0.0 1.0 0.00 0.00 0.00 87 1016.0
20260507075259 45 277 0.0 1.0 0.00 0.00 0.00 88 1016.0
20260507074759 45 333 0.0 1.0 0.00 0.00 0.00 88 1016.0
20260507074259 45 101 0.0 1.0 0.00 0.00 0.00 88 1015.9
20260507073759 45 240 0.0 0.0 0.00 0.00 0.00 88 1015.9
20260507073259 45 126 0.0 1.0 0.00 0.00 0.00 88 1015.7
20260507072759 45 58 0.0 1.0 0.00 0.00 0.00 88 1015.8
20260507072259 45 41 0.0 1.0 0.00 0.00 0.00 88 1015.9
20260507071759 45 45 0.0 0.0 0.00 0.00 0.00 89 1015.8
20260507071259 45 44 0.0 0.0 0.00 0.00 0.00 89 1015.6
20260507070759 44 46 0.0 1.0 0.00 0.00 0.00 89 1015.7
20260507070259 44 32 0.0 1.0 0.00 0.00 0.00 89 1015.6
20260507065759 44 248 0.0 0.0 0.00 0.00 0.00 89 1015.5
20260507065259 44 315 0.0 0.0 0.00 0.00 0.00 89 1015.6
20260507064759 44 309 0.0 0.0 0.00 0.00 0.00 89 1015.5
20260507064259 44 185 0.0 0.0 0.00 0.00 0.00 89 1015.6
20260507063759 44 185 0.0 2.0 0.00 0.00 0.00 89 1015.6
20260507063259 44 242 0.0 1.0 0.00 0.00 0.00 89 1015.5
20260507062759 43 32 0.0 1.0 0.00 0.00 0.00 89 1015.6
20260507062259 43 282 0.0 0.0 0.00 0.00 0.00 89 1015.6
20260507061759 43 243 0.0 0.0 0.00 0.00 0.00 89 1015.5
20260507061259 43 299 0.0 1.0 0.00 0.00 0.00 89 1015.5
20260507060759 43 270 0.0 0.0 0.00 0.00 0.00 89 1015.5
20260507060259 43 354 0.0 1.0 0.00 0.00 0.00 89 1015.5
20260507055759 43 224 0.0 0.0 0.00 0.00 0.00 89 1015.4
20260507055259 43 323 0.0 1.0 0.00 0.00 0.00 89 1015.5
20260507054759 43 9 0.0 1.0 0.00 0.00 0.00 89 1015.4
20260507054259 43 295 0.0 1.0 0.00 0.00 0.00 89 1015.5
20260507053759 43 34 0.0 1.0 0.00 0.00 0.00 89 1015.4
20260507053259 43 23 0.0 0.0 0.00 0.00 0.00 89 1015.4
20260507052759 43 70 0.0 1.0 0.00 0.00 0.00 89 1015.4
20260507052259 43 70 0.0 0.0 0.00 0.00 0.00 89 1015.3
20260507051759 43 70 0.0 0.0 0.00 0.00 0.00 89 1015.4
20260507051259 43 70 0.0 0.0 0.00 0.00 0.00 89 1015.4
20260507050759 43 70 0.0 0.0 0.00 0.00 0.00 89 1015.4
20260507050259 43 70 0.0 0.0 0.00 0.00 0.00 89 1015.4
20260507045759 43 70 0.0 0.0 0.00 0.00 0.00 89 1015.4
20260507045259 43 70 0.0 0.0 0.00 0.00 0.00 89 1015.4
20260507044759 43 82 0.0 0.0 0.00 0.00 0.00 89 1015.3
20260507044259 43 82 0.0 1.0 0.00 0.00 0.00 89 1015.3
20260507043759 43 79 0.0 0.0 0.00 0.00 0.00 89 1015.2
20260507043259 43 79 0.0 0.0 0.00 0.00 0.00 89 1015.1
20260507042759 43 79 0.0 0.0 0.00 0.00 0.00 89 1015.3
20260507042259 43 79 0.0 0.0 0.00 0.00 0.00 89 1015.2
20260507041759 43 79 0.0 0.0 0.00 0.00 0.00 89 1015.2
20260507041259 43 80 0.0 0.0 0.00 0.00 0.00 89 1015.2
20260507040759 43 80 0.0 0.0 0.00 0.00 0.00 89 1015.2
20260507040259 43 80 0.0 0.0 0.00 0.00 0.00 89 1015.2
20260507035759 43 80 0.0 0.0 0.00 0.00 0.00 89 1015.2
20260507035259 43 80 0.0 0.0 0.00 0.00 0.00 89 1015.2
20260507034759 43 80 0.0 0.0 0.00 0.00 0.00 89 1015.2
20260507034259 43 78 0.0 0.0 0.00 0.00 0.00 89 1015.2
20260507033759 43 79 0.0 0.0 0.00 0.00 0.00 89 1015.3
20260507033259 43 79 0.0 0.0 0.00 0.00 0.00 89 1015.2
20260507032759 43 79 0.0 0.0 0.00 0.00 0.00 89 1015.3
20260507032259 43 79 0.0 0.0 0.00 0.00 0.00 89 1015.2
20260507031759 43 79 0.0 1.0 0.00 0.00 0.00 89 1015.2
20260507031259 43 79 0.0 0.0 0.00 0.00 0.00 88 1015.2
20260507030759 43 79 0.0 0.0 0.00 0.00 0.00 88 1015.3
20260507030259 43 79 0.0 0.0 0.00 0.00 0.00 88 1015.1
20260507025759 43 79 0.0 0.0 0.00 0.00 0.00 88 1015.2
20260507025259 43 79 0.0 0.0 0.00 0.00 0.00 88 1015.2
20260507024759 43 80 0.0 0.0 0.00 0.00 0.00 88 1015.2
20260507024259 43 77 0.0 0.0 0.00 0.00 0.00 88 1015.2
20260507023759 43 105 0.0 0.0 0.00 0.00 0.00 88 1015.2
20260507023259 43 105 0.0 0.0 0.00 0.00 0.00 88 1015.2
20260507022759 43 106 0.0 1.0 0.00 0.00 0.00 88 1015.3
20260507022259 43 300 0.0 0.0 0.00 0.00 0.00 88 1015.2
20260507021759 43 300 0.0 0.0 0.00 0.00 0.00 88 1015.2
20260507021259 43 302 0.0 1.0 0.00 0.00 0.00 87 1015.3
20260507020759 43 34 0.0 1.0 0.00 0.00 0.00 87 1015.3
20260507020259 44 38 0.0 0.0 0.00 0.00 0.00 87 1015.2
20260507015759 44 39 0.0 1.0 0.00 0.00 0.00 87 1015.3
20260507015259 44 77 0.0 0.0 0.00 0.00 0.00 87 1015.2
20260507014759 44 77 0.0 0.0 0.00 0.00 0.00 87 1015.2
20260507014259 44 77 0.0 0.0 0.00 0.00 0.00 87 1015.2
20260507013759 44 78 0.0 0.0 0.00 0.00 0.00 87 1015.1
20260507013259 44 245 0.0 0.0 0.00 0.00 0.00 87 1015.1
20260507012759 44 245 0.0 0.0 0.00 0.00 0.00 87 1015.0
20260507012259 44 251 0.0 0.0 0.00 0.00 0.00 87 1015.0
20260507011759 44 276 0.0 0.0 0.00 0.00 0.00 87 1015.0
20260507011259 44 276 0.0 0.0 0.00 0.00 0.00 87 1015.0
20260507010759 44 276 0.0 0.0 0.00 0.00 0.00 87 1014.9
20260507010259 44 276 0.0 0.0 0.00 0.00 0.00 86 1014.9
20260507005759 44 81 0.0 0.0 0.00 0.00 0.00 86 1014.9
20260507005259 44 79 0.0 1.0 0.00 0.00 0.00 86 1014.9
20260507004759 45 8 0.0 1.0 0.00 0.00 0.00 86 1014.8
20260507004259 45 96 0.0 0.0 0.00 0.00 0.00 86 1014.8
20260507003759 45 91 0.0 0.0 0.00 0.00 0.00 86 1015.0
20260507003259 45 91 0.0 0.0 0.00 0.00 0.00 86 1015.0
20260507002800 45 91 0.0 0.0 0.00 0.00 0.00 85 1015.0
20260507002300 45 94 0.0 0.0 0.00 0.00 0.00 85 1015.0
20260507001800 45 91 0.0 0.0 0.00 0.00 0.00 85 1015.0
20260507001300 45 91 0.0 0.0 0.00 0.00 0.00 85 1015.1
20260507000800 45 91 0.0 0.0 0.00 0.00 0.00 85 1015.2
20260507000300 45 91 0.0 1.0 0.00 0.00 0.00 85 1015.2
20260506235800 45 29 0.0 1.0 0.00 0.00 0.00 84 1015.3
20260506235300 46 337 0.0 0.0 0.00 0.00 0.00 84 1015.1
20260506234800 46 27 0.0 0.0 0.00 0.00 0.00 84 1015.1
20260506234300 46 18 0.0 1.0 0.00 0.00 0.00 84 1015.2
20260506233800 46 83 0.0 1.0 0.00 0.00 0.00 84 1015.1
20260506233300 46 78 0.0 1.0 0.00 0.00 0.00 84 1014.9
20260506232800 46 29 0.0 0.0 0.00 0.00 0.00 83 1015.2
20260506232300 46 28 0.0 0.0 0.00 0.00 0.00 83 1015.2
20260506231800 46 27 0.0 0.0 0.00 0.00 0.00 83 1015.2
20260506231300 46 50 0.0 2.0 0.00 0.00 0.00 83 1015.1
20260506230800 46 352 0.0 0.0 0.00 0.00 0.00 83 1015.1
20260506230300 46 314 0.0 0.0 0.00 0.00 0.00 83 1015.2
20260506225800 46 314 0.0 1.0 0.00 0.00 0.00 83 1015.1
20260506225300 46 311 0.0 0.0 0.00 0.00 0.00 83 1015.2
20260506224800 46 311 0.0 0.0 0.00 0.00 0.00 82 1015.2
20260506224300 46 314 0.0 0.0 0.00 0.00 0.00 82 1015.2
20260506223800 46 314 0.0 0.0 0.00 0.00 0.00 82 1015.2
20260506223300 46 16 0.0 0.0 0.00 0.00 0.00 81 1015.1
20260506222800 46 16 0.0 0.0 0.00 0.00 0.00 81 1015.1
20260506222300 47 16 0.0 1.0 0.00 0.00 0.00 81 1015.0
20260506221800 47 341 0.0 0.0 0.00 0.00 0.00 81 1015.0
20260506221300 47 341 0.0 0.0 0.00 0.00 0.00 81 1015.0
20260506220800 47 325 0.0 0.0 0.00 0.00 0.00 81 1015.1
20260506220300 47 226 0.0 1.0 0.00 0.00 0.00 80 1015.1
20260506215800 47 330 0.0 0.0 0.00 0.00 0.00 80 1015.1
20260506215300 47 336 0.0 1.0 0.00 0.00 0.00 79 1015.2
20260506214800 47 297 0.0 1.0 0.00 0.00 0.00 79 1015.0
20260506214300 47 284 0.0 0.0 0.00 0.00 0.00 79 1014.8
20260506213800 47 284 0.0 1.0 0.00 0.00 0.00 79 1014.8
20260506213300 47 121 0.0 0.0 0.00 0.00 0.00 78 1015.1
20260506212800 47 120 0.0 1.0 0.00 0.00 0.00 78 1014.9
20260506212300 47 154 0.0 0.0 0.00 0.00 0.00 78 1014.8
20260506211800 47 153 0.0 0.0 0.00 0.00 0.00 77 1014.9
20260506211300 47 154 0.0 0.0 0.00 0.00 0.00 77 1015.0
20260506210800 47 262 0.0 0.0 0.00 0.00 0.00 76 1014.9
20260506210300 47 137 0.0 0.0 0.00 0.00 0.00 76 1014.7
20260506205800 47 244 0.0 0.0 0.00 0.00 0.00 76 1014.7
20260506205300 47 244 0.0 0.0 0.00 0.00 0.00 76 1014.8
20260506204800 47 244 0.0 0.0 0.00 0.00 0.00 75 1014.7
20260506204300 47 207 0.0 0.0 0.00 0.00 0.00 76 1014.7
20260506203800 47 207 0.0 1.0 0.00 0.00 0.00 75 1014.6
20260506203300 47 207 0.0 0.0 0.00 0.00 0.00 74 1014.5
20260506202800 48 208 0.0 0.0 0.00 0.00 0.00 75 1014.5
20260506202300 48 209 0.0 0.0 0.00 0.00 0.00 74 1014.4
20260506201800 48 209 0.0 0.0 0.00 0.00 0.00 73 1014.4
20260506201300 48 209 0.0 0.0 0.00 0.00 0.00 73 1014.3
20260506200800 47 272 0.0 1.0 0.00 0.00 0.00 72 1014.4
20260506200300 47 353 0.0 1.0 0.00 0.00 0.00 72 1014.2
20260506195800 47 274 0.0 0.0 0.00 0.00 0.00 73 1014.0
20260506195300 47 274 0.0 0.0 0.00 0.00 0.00 73 1014.0
20260506194800 47 274 0.0 0.0 0.00 0.00 0.00 73 1013.9
20260506194300 48 274 0.0 0.0 0.00 0.00 0.00 73 1013.9
20260506193800 48 274 0.0 0.0 0.00 0.00 0.00 72 1014.1
20260506193300 48 274 0.0 0.0 0.00 0.00 0.00 72 1014.0
20260506192800 48 268 0.0 0.0 0.00 0.00 0.00 71 1014.0
20260506192300 49 231 0.0 0.0 0.00 0.00 0.00 72 1014.1
20260506191800 49 231 0.0 0.0 0.00 0.00 0.00 69 1014.1
20260506191300 50 231 0.0 0.0 0.00 0.00 0.00 70 1014.1
20260506190800 50 231 0.0 0.0 0.00 0.00 0.00 69 1014.1
20260506190300 51 231 0.0 0.0 0.00 0.00 0.00 66 1014.0
20260506185800 51 231 0.0 0.0 0.00 0.00 0.00 65 1014.0
20260506185300 52 231 0.0 0.0 0.00 0.00 0.00 64 1014.0
20260506184800 52 231 0.0 0.0 0.00 0.00 0.00 65 1014.0
20260506184300 53 231 0.0 0.0 0.00 0.00 0.00 66 1014.0
20260506183800 53 231 0.0 0.0 0.00 0.00 0.00 67 1014.1
20260506183300 53 230 0.0 0.0 0.00 0.00 0.00 61 1014.1
20260506182800 54 214 0.0 0.0 0.00 0.00 0.00 65 1014.0
20260506182300 54 214 0.0 1.0 0.00 0.00 0.00 60 1014.0
20260506181800 54 295 0.0 1.0 0.00 0.00 0.00 61 1013.9
20260506181300 54 263 0.0 1.0 0.00 0.00 0.00 63 1013.9
20260506180800 54 229 0.0 2.0 0.00 0.00 0.00 59 1013.8
20260506180300 54 129 0.0 1.0 0.00 0.00 0.00 62 1013.8
20260506175800 54 39 0.0 2.0 0.00 0.00 0.00 60 1013.7
20260506175300 55 298 0.0 1.0 0.00 0.00 0.00 59 1013.8
20260506174800 55 352 0.0 1.0 0.00 0.00 0.00 59 1013.8
20260506174300 55 203 0.0 0.0 0.00 0.00 0.00 62 1013.7
20260506173800 55 217 0.0 1.0 0.00 0.00 0.00 59 1013.7
20260506173300 55 82 0.0 1.0 0.00 0.00 0.00 57 1013.7
20260506172800 55 226 0.0 0.0 0.00 0.00 0.00 61 1013.6
20260506172300 55 252 0.0 0.0 0.00 0.00 0.00 60 1013.6
20260506171800 55 311 0.0 2.0 0.00 0.00 0.00 62 1013.5
20260506171300 55 263 0.0 1.0 0.00 0.00 0.00 61 1013.7
20260506170800 55 114 0.0 1.0 0.00 0.00 0.00 62 1013.6
20260506170300 55 262 0.0 1.0 0.00 0.00 0.00 62 1013.7
20260506165800 55 346 0.0 1.0 0.00 0.00 0.00 59 1013.6
20260506165300 56 82 0.0 1.0 0.00 0.00 0.00 59 1013.5
20260506164800 56 278 0.0 3.0 0.00 0.00 0.00 63 1013.7
20260506164301 56 343 0.0 3.0 0.00 0.00 0.00 58 1013.4
20260506163800 56 92 0.0 4.0 0.00 0.00 0.00 56 1013.5
20260506163300 56 255 0.0 0.0 0.00 0.00 0.00 60 1013.5
20260506162800 56 243 0.0 1.0 0.00 0.00 0.00 61 1013.5
20260506162300 56 319 0.0 0.0 0.00 0.00 0.00 58 1013.5
20260506161800 56 260 0.0 1.0 0.00 0.00 0.00 57 1013.6
20260506161300 56 260 0.0 1.0 0.00 0.00 0.00 56 1013.6
20260506160800 57 247 0.0 3.0 0.00 0.00 0.00 58 1013.5
20260506160300 58 266 0.0 1.0 0.00 0.00 0.00 57 1013.5
20260506155800 59 46 1.0 3.0 0.00 0.00 0.00 54 1013.4
20260506155300 58 340 0.0 3.0 0.00 0.00 0.00 53 1013.3
20260506154801 58 348 0.0 3.0 0.00 0.00 0.00 55 1013.3
20260506154301 58 4 0.0 3.0 0.00 0.00 0.00 56 1013.4
20260506153801 57 337 0.0 3.0 0.00 0.00 0.00 58 1013.5
20260506153301 57 8 0.0 2.0 0.00 0.00 0.00 55 1013.6
20260506152801 58 119 0.0 2.0 0.00 0.00 0.00 60 1013.6
20260506152301 57 162 0.0 0.0 0.00 0.00 0.00 57 1013.7
20260506151801 57 259 0.0 1.0 0.00 0.00 0.00 60 1013.7
20260506151301 58 337 0.0 2.0 0.00 0.00 0.00 56 1013.7
20260506150801 59 95 0.0 3.0 0.00 0.00 0.00 55 1013.7
20260506150304 60 245 0.0 2.0 0.00 0.00 0.00 57 1013.8
20260506145801 58 256 0.0 3.0 0.00 0.00 0.00 59 1013.8
20260506145301 57 333 0.0 1.0 0.00 0.00 0.00 61 1013.9
20260506144801 57 340 0.0 2.0 0.00 0.00 0.00 62 1014.0
20260506144301 57 345 0.0 2.0 0.00 0.00 0.00 58 1014.1